| time (UTC) | temp F | wind direction | speed MPH | gust MPH | rain 1hr in | rain 24hr in | rain mn in | humidity % | barometer mb |
| 20260504234506 | 78 | 144 | 4.0 | 6.0 | 0.00 | 0.00 | 0.00 | 55 | 1010.2 |
| 20260504234008 | 78 | 162 | 7.0 | 9.0 | 0.00 | 0.00 | 0.00 | 55 | 1010.2 |
| 20260504233507 | 78 | 144 | 5.0 | 8.0 | 0.00 | 0.00 | 0.00 | 56 | 1010.2 |
| 20260504233007 | 78 | 117 | 6.0 | 8.0 | 0.00 | 0.00 | 0.00 | 56 | 1010.5 |
| 20260504232507 | 78 | 180 | 7.0 | 7.0 | 0.00 | 0.00 | 0.00 | 55 | 1010.5 |
| 20260504232006 | 78 | 153 | 8.0 | 10.0 | 0.00 | 0.00 | 0.00 | 54 | 1010.5 |
| 20260504231507 | 78 | 153 | 6.0 | 6.0 | 0.00 | 0.00 | 0.00 | 54 | 1010.5 |
| 20260504231008 | 79 | 72 | 7.0 | 7.0 | 0.00 | 0.00 | 0.00 | 53 | 1010.5 |
| 20260504230506 | 79 | 144 | 6.0 | 8.0 | 0.00 | 0.00 | 0.00 | 53 | 1010.5 |
| 20260504230007 | 79 | 153 | 6.0 | 8.0 | 0.00 | 0.00 | 0.00 | 53 | 1010.5 |
| 20260504225507 | 79 | 108 | 6.0 | 7.0 | 0.00 | 0.00 | 0.00 | 53 | 1010.8 |
| 20260504225007 | 79 | 162 | 5.0 | 7.0 | 0.00 | 0.00 | 0.00 | 54 | 1010.8 |
| 20260504224507 | 78 | 135 | 5.0 | 7.0 | 0.00 | 0.00 | 0.00 | 54 | 1010.8 |
| 20260504224007 | 77 | 135 | 5.0 | 6.0 | 0.00 | 0.00 | 0.00 | 55 | 1010.8 |
| 20260504223507 | 77 | 189 | 8.0 | 10.0 | 0.00 | 0.00 | 0.00 | 54 | 1010.8 |
| 20260504223007 | 78 | 171 | 6.0 | 8.0 | 0.00 | 0.00 | 0.00 | 53 | 1011.1 |
| 20260504222507 | 78 | 108 | 5.0 | 7.0 | 0.00 | 0.00 | 0.00 | 54 | 1011.2 |
| 20260504222007 | 78 | 198 | 7.0 | 8.0 | 0.00 | 0.00 | 0.00 | 56 | 1011.2 |
| 20260504221506 | 77 | 113 | 5.0 | 8.0 | 0.00 | 0.00 | 0.00 | 54 | 1011.2 |
| 20260504221007 | 77 | 126 | 6.0 | 8.0 | 0.00 | 0.00 | 0.00 | 55 | 1011.2 |
| 20260504220507 | 77 | 144 | 3.0 | 5.0 | 0.00 | 0.00 | 0.00 | 56 | 1011.5 |
| 20260504220007 | 76 | 198 | 6.0 | 8.0 | 0.00 | 0.00 | 0.00 | 57 | 1011.5 |
| 20260504215507 | 75 | 135 | 5.0 | 6.0 | 0.00 | 0.00 | 0.00 | 57 | 1011.5 |
| 20260504215007 | 75 | 189 | 7.0 | 11.0 | 0.00 | 0.00 | 0.00 | 56 | 1011.5 |
| 20260504214506 | 75 | 72 | 7.0 | 11.0 | 0.00 | 0.00 | 0.00 | 58 | 1011.5 |
| 20260504214008 | 75 | 171 | 8.0 | 9.0 | 0.00 | 0.00 | 0.00 | 57 | 1011.6 |
| 20260504213507 | 75 | 162 | 5.0 | 6.0 | 0.00 | 0.00 | 0.00 | 57 | 1011.9 |
| 20260504213007 | 74 | 198 | 6.0 | 8.0 | 0.00 | 0.00 | 0.00 | 60 | 1011.9 |
| 20260504212507 | 74 | 126 | 7.0 | 9.0 | 0.00 | 0.00 | 0.00 | 59 | 1011.9 |
| 20260504212007 | 74 | 169 | 7.0 | 8.0 | 0.00 | 0.00 | 0.00 | 59 | 1011.9 |
| 20260504211507 | 74 | 207 | 5.0 | 8.0 | 0.00 | 0.00 | 0.00 | 60 | 1011.9 |
| 20260504211008 | 73 | 198 | 6.0 | 7.0 | 0.00 | 0.00 | 0.00 | 62 | 1012.1 |
| 20260504210506 | 72 | 162 | 5.0 | 6.0 | 0.00 | 0.00 | 0.00 | 66 | 1012.2 |
| 20260504210007 | 71 | 108 | 4.0 | 7.0 | 0.00 | 0.00 | 0.00 | 66 | 1012.3 |
| 20260504205507 | 70 | 135 | 7.0 | 8.0 | 0.00 | 0.00 | 0.00 | 67 | 1012.5 |
| 20260504205007 | 70 | 162 | 8.0 | 9.0 | 0.00 | 0.00 | 0.00 | 67 | 1012.5 |
| 20260504204507 | 70 | 153 | 8.0 | 9.0 | 0.00 | 0.00 | 0.00 | 66 | 1012.5 |
| 20260504204006 | 71 | 108 | 8.0 | 10.0 | 0.00 | 0.00 | 0.00 | 67 | 1012.6 |
| 20260504203507 | 71 | 207 | 7.0 | 10.0 | 0.00 | 0.00 | 0.00 | 67 | 1012.7 |
| 20260504203007 | 70 | 144 | 6.0 | 8.0 | 0.00 | 0.00 | 0.00 | 70 | 1012.9 |
| 20260504202507 | 70 | 108 | 7.0 | 8.0 | 0.00 | 0.00 | 0.00 | 68 | 1012.9 |
| 20260504202007 | 70 | 162 | 6.0 | 8.0 | 0.00 | 0.00 | 0.00 | 70 | 1012.9 |
| 20260504201507 | 70 | 180 | 7.0 | 8.0 | 0.00 | 0.00 | 0.00 | 70 | 1012.9 |
| 20260504201007 | 70 | 162 | 6.0 | 7.0 | 0.00 | 0.00 | 0.00 | 69 | 1012.9 |
| 20260504200507 | 70 | 144 | 7.0 | 8.0 | 0.00 | 0.00 | 0.00 | 71 | 1012.9 |
| 20260504200007 | 69 | 190 | 6.0 | 9.0 | 0.00 | 0.00 | 0.00 | 73 | 1013.1 |
| 20260504195507 | 68 | 153 | 6.0 | 7.0 | 0.00 | 0.00 | 0.00 | 77 | 1013.2 |
| 20260504195007 | 67 | 144 | 5.0 | 8.0 | 0.00 | 0.00 | 0.00 | 77 | 1013.2 |
| 20260504194507 | 66 | 135 | 6.0 | 7.0 | 0.00 | 0.00 | 0.00 | 83 | 1013.2 |
| 20260504194007 | 66 | 108 | 7.0 | 11.0 | 0.00 | 0.00 | 0.00 | 81 | 1013.2 |
| 20260504193507 | 66 | 153 | 6.0 | 10.0 | 0.00 | 0.00 | 0.00 | 82 | 1013.2 |
| 20260504193006 | 65 | 108 | 7.0 | 8.0 | 0.00 | 0.00 | 0.00 | 85 | 1013.2 |
| 20260504192507 | 65 | 198 | 8.0 | 9.0 | 0.00 | 0.00 | 0.00 | 84 | 1013.2 |
| 20260504192007 | 65 | 117 | 7.0 | 9.0 | 0.00 | 0.00 | 0.00 | 85 | 1013.2 |
| 20260504191507 | 65 | 144 | 5.0 | 6.0 | 0.00 | 0.00 | 0.00 | 87 | 1013.5 |
| 20260504191007 | 64 | 153 | 5.0 | 8.0 | 0.00 | 0.00 | 0.00 | 89 | 1013.6 |
| 20260504190506 | 64 | 226 | 6.0 | 8.0 | 0.00 | 0.00 | 0.00 | 90 | 1013.6 |
| 20260504190007 | 64 | 249 | 8.0 | 9.0 | 0.00 | 0.00 | 0.00 | 90 | 1013.6 |
| 20260504185507 | 63 | 117 | 7.0 | 8.0 | 0.00 | 0.00 | 0.00 | 91 | 1013.6 |
| 20260504185007 | 63 | 144 | 6.0 | 8.0 | 0.00 | 0.00 | 0.00 | 92 | 1013.6 |
| 20260504184507 | 62 | 108 | 4.0 | 7.0 | 0.00 | 0.00 | 0.00 | 92 | 1013.6 |
| 20260504184007 | 62 | 189 | 6.0 | 8.0 | 0.00 | 0.00 | 0.00 | 92 | 1013.6 |
| 20260504183508 | 61 | 162 | 7.0 | 8.0 | 0.00 | 0.00 | 0.00 | 92 | 1013.6 |
| 20260504183006 | 62 | 153 | 7.0 | 9.0 | 0.00 | 0.00 | 0.00 | 92 | 1013.6 |
| 20260504182507 | 61 | 171 | 6.0 | 8.0 | 0.00 | 0.00 | 0.00 | 93 | 1013.6 |
| 20260504182007 | 61 | 126 | 7.0 | 9.0 | 0.00 | 0.00 | 0.00 | 93 | 1013.6 |
| 20260504181508 | 61 | 126 | 7.0 | 9.0 | 0.00 | 0.00 | 0.00 | 93 | 1013.6 |
| 20260504181006 | 60 | 153 | 7.0 | 10.0 | 0.00 | 0.00 | 0.00 | 93 | 1013.6 |
| 20260504180507 | 60 | 117 | 7.0 | 9.0 | 0.00 | 0.00 | 0.00 | 94 | 1013.6 |
| 20260504180007 | 60 | 126 | 4.0 | 7.0 | 0.00 | 0.00 | 0.00 | 94 | 1013.6 |
| 20260504175507 | 59 | 126 | 7.0 | 9.0 | 0.00 | 0.00 | 0.00 | 94 | 1013.6 |
| 20260504175007 | 59 | 180 | 7.0 | 8.0 | 0.00 | 0.00 | 0.00 | 94 | 1013.7 |
| 20260504174507 | 59 | 198 | 8.0 | 11.0 | 0.00 | 0.00 | 0.00 | 94 | 1013.9 |
| 20260504174007 | 59 | 162 | 6.0 | 7.0 | 0.00 | 0.00 | 0.00 | 95 | 1013.6 |
| 20260504173508 | 58 | 99 | 3.0 | 5.0 | 0.00 | 0.00 | 0.00 | 95 | 1013.6 |
| 20260504173006 | 58 | 117 | 5.0 | 6.0 | 0.00 | 0.00 | 0.00 | 95 | 1013.6 |
| 20260504172507 | 58 | 153 | 6.0 | 9.0 | 0.00 | 0.00 | 0.00 | 95 | 1013.7 |
| 20260504172008 | 58 | 81 | 7.0 | 10.0 | 0.00 | 0.00 | 0.00 | 95 | 1013.6 |
| 20260504171507 | 58 | 162 | 8.0 | 10.0 | 0.00 | 0.00 | 0.00 | 95 | 1013.6 |
| 20260504171007 | 58 | 144 | 6.0 | 8.0 | 0.00 | 0.00 | 0.00 | 95 | 1013.6 |
| 20260504170507 | 58 | 144 | 6.0 | 8.0 | 0.00 | 0.00 | 0.00 | 95 | 1013.6 |
| 20260504151007 | 55 | 162 | 7.0 | 10.0 | 0.00 | 0.00 | 0.00 | 97 | 1013.2 |
| 20260504150506 | 55 | 144 | 9.0 | 10.0 | 0.00 | 0.00 | 0.00 | 97 | 1013.2 |
| 20260504141007 | 54 | 153 | 8.0 | 10.0 | 0.00 | 0.00 | 0.00 | 98 | 1012.5 |
| 20260504140507 | 54 | 153 | 8.0 | 10.0 | 0.00 | 0.00 | 0.00 | 98 | 1012.4 |
| 20260504130506 | 55 | 153 | 7.0 | 8.0 | 0.00 | 0.00 | 0.00 | 97 | 1011.5 |
| 20260504110507 | 60 | 117 | 8.0 | 10.0 | 0.00 | 0.00 | 0.00 | 93 | 1009.6 |
| 20260504100506 | 62 | 162 | 7.0 | 10.0 | 0.00 | 0.00 | 0.00 | 92 | 1008.8 |
| 20260504082007 | 63 | 315 | 0.0 | 0.0 | 0.00 | 0.00 | 0.00 | 81 | 1008.1 |
| 20260504081507 | 63 | 315 | 0.0 | 0.0 | 0.00 | 0.00 | 0.00 | 81 | 1008.1 |
| 20260504081007 | 63 | 315 | 0.0 | 0.0 | 0.00 | 0.00 | 0.00 | 79 | 1008.1 |
| 20260504080506 | 64 | 315 | 0.0 | 0.0 | 0.00 | 0.00 | 0.00 | 77 | 1008.1 |
| 20260504050507 | 72 | 0 | 0.0 | 1.0 | 0.00 | 0.00 | 0.00 | 52 | 1007.1 |
| 20260504050007 | 73 | 0 | 0.0 | 0.0 | 0.00 | 0.00 | 0.00 | 53 | 1007.1 |
| 20260504045506 | 73 | 63 | 1.0 | 2.0 | 0.00 | 0.00 | 0.00 | 51 | 1007.1 |
| 20260504045007 | 73 | 327 | 1.0 | 5.0 | 0.00 | 0.00 | 0.00 | 52 | 1007.1 |
| 20260504044507 | 74 | 365 | 0.0 | 0.0 | 0.00 | 0.00 | 0.00 | 52 | 1007.0 |
| 20260504044007 | 74 | 365 | 0.0 | 0.0 | 0.00 | 0.00 | 0.00 | 51 | 1006.8 |
| 20260504043507 | 74 | 335 | 0.0 | 2.0 | 0.00 | 0.00 | 0.00 | 51 | 1006.8 |
| 20260504043008 | 75 | 315 | 0.0 | 0.0 | 0.00 | 0.00 | 0.00 | 50 | 1006.8 |
| 20260504042507 | 75 | 315 | 1.0 | 3.0 | 0.00 | 0.00 | 0.00 | 49 | 1006.8 |
| 20260504042006 | 76 | 225 | 0.0 | 1.0 | 0.00 | 0.00 | 0.00 | 49 | 1006.8 |
| 20260504041507 | 76 | 225 | 0.0 | 2.0 | 0.00 | 0.00 | 0.00 | 48 | 1006.8 |
| 20260504041007 | 77 | 225 | 0.0 | 1.0 | 0.00 | 0.00 | 0.00 | 46 | 1006.8 |
| 20260504040507 | 77 | 225 | 0.0 | 1.0 | 0.00 | 0.00 | 0.00 | 46 | 1006.6 |
| 20260504040006 | 77 | 216 | 2.0 | 5.0 | 0.00 | 0.00 | 0.00 | 45 | 1006.4 |
| 20260504035507 | 78 | 199 | 2.0 | 5.0 | 0.00 | 0.00 | 0.00 | 45 | 1006.4 |
| 20260504035007 | 78 | 262 | 1.0 | 3.0 | 0.00 | 0.00 | 0.00 | 46 | 1006.4 |
| 20260504034507 | 79 | 252 | 1.0 | 4.0 | 0.00 | 0.00 | 0.00 | 46 | 1006.4 |
| 20260504034007 | 79 | 315 | 0.0 | 1.0 | 0.00 | 0.00 | 0.00 | 45 | 1006.4 |
| 20260504033507 | 80 | 270 | 2.0 | 5.0 | 0.00 | 0.00 | 0.00 | 44 | 1006.2 |
| 20260504033008 | 80 | 288 | 3.0 | 5.0 | 0.00 | 0.00 | 0.00 | 43 | 1006.1 |
| 20260504032506 | 81 | 280 | 4.0 | 5.0 | 0.00 | 0.00 | 0.00 | 43 | 1006.1 |
| 20260504032008 | 81 | 315 | 2.0 | 4.0 | 0.00 | 0.00 | 0.00 | 42 | 1006.1 |
| 20260504031507 | 82 | 315 | 1.0 | 3.0 | 0.00 | 0.00 | 0.00 | 42 | 1006.1 |
| 20260504031007 | 82 | 315 | 2.0 | 6.0 | 0.00 | 0.00 | 0.00 | 40 | 1006.1 |
| 20260504030507 | 83 | 180 | 5.0 | 6.0 | 0.00 | 0.00 | 0.00 | 39 | 1006.1 |
| 20260504030007 | 83 | 285 | 4.0 | 5.0 | 0.00 | 0.00 | 0.00 | 39 | 1006.0 |
| 20260504025507 | 83 | 199 | 2.0 | 4.0 | 0.00 | 0.00 | 0.00 | 39 | 1005.8 |
| 20260504025007 | 84 | 262 | 3.0 | 5.0 | 0.00 | 0.00 | 0.00 | 38 | 1005.8 |
| 20260504024506 | 84 | 328 | 2.0 | 5.0 | 0.00 | 0.00 | 0.00 | 37 | 1005.8 |
| 20260504024007 | 85 | 279 | 3.0 | 7.0 | 0.00 | 0.00 | 0.00 | 37 | 1005.8 |
| 20260504023507 | 85 | 297 | 3.0 | 5.0 | 0.00 | 0.00 | 0.00 | 37 | 1005.8 |
| 20260504023008 | 85 | 108 | 3.0 | 7.0 | 0.00 | 0.00 | 0.00 | 36 | 1005.8 |
| 20260504022507 | 86 | 126 | 6.0 | 8.0 | 0.00 | 0.00 | 0.00 | 35 | 1005.8 |
| 20260504022007 | 86 | 279 | 2.0 | 5.0 | 0.00 | 0.00 | 0.00 | 36 | 1005.8 |
| 20260504021506 | 86 | 243 | 3.0 | 5.0 | 0.00 | 0.00 | 0.00 | 35 | 1005.8 |
| 20260504021007 | 86 | 297 | 5.0 | 6.0 | 0.00 | 0.00 | 0.00 | 35 | 1005.8 |
| 20260504020507 | 87 | 135 | 6.0 | 7.0 | 0.00 | 0.00 | 0.00 | 35 | 1005.8 |
| 20260504020007 | 87 | 226 | 5.0 | 5.0 | 0.00 | 0.00 | 0.00 | 35 | 1005.8 |
| 20260504015507 | 87 | 117 | 5.0 | 7.0 | 0.00 | 0.00 | 0.00 | 35 | 1005.8 |
| 20260504015007 | 87 | 150 | 5.0 | 6.0 | 0.00 | 0.00 | 0.00 | 34 | 1005.8 |
| 20260504014507 | 88 | 108 | 5.0 | 8.0 | 0.00 | 0.00 | 0.00 | 34 | 1005.8 |
| 20260504014007 | 88 | 207 | 5.0 | 7.0 | 0.00 | 0.00 | 0.00 | 34 | 1005.8 |
| 20260504013507 | 89 | 225 | 2.0 | 4.0 | 0.00 | 0.00 | 0.00 | 34 | 1005.9 |
| 20260504013008 | 89 | 340 | 3.0 | 6.0 | 0.00 | 0.00 | 0.00 | 35 | 1006.1 |
| 20260504012506 | 89 | 117 | 6.0 | 9.0 | 0.00 | 0.00 | 0.00 | 33 | 1006.1 |
| 20260504012007 | 89 | 272 | 7.0 | 8.0 | 0.00 | 0.00 | 0.00 | 33 | 1006.1 |
| 20260504011507 | 90 | 190 | 6.0 | 8.0 | 0.00 | 0.00 | 0.00 | 32 | 1006.1 |
| 20260504011007 | 91 | 316 | 6.0 | 9.0 | 0.00 | 0.00 | 0.00 | 32 | 1006.1 |
| 20260504010507 | 92 | 288 | 5.0 | 7.0 | 0.00 | 0.00 | 0.00 | 31 | 1006.1 |
| 20260504010007 | 93 | 207 | 5.0 | 7.0 | 0.00 | 0.00 | 0.00 | 31 | 1006.1 |
| 20260504005507 | 94 | 234 | 3.0 | 6.0 | 0.00 | 0.00 | 0.00 | 30 | 1006.1 |
| 20260504005007 | 94 | 270 | 3.0 | 7.0 | 0.00 | 0.00 | 0.00 | 29 | 1006.1 |
| 20260504004507 | 95 | 162 | 5.0 | 7.0 | 0.00 | 0.00 | 0.00 | 28 | 1006.2 |
| 20260504004006 | 95 | 208 | 6.0 | 8.0 | 0.00 | 0.00 | 0.00 | 29 | 1006.2 |
| 20260504003507 | 95 | 253 | 5.0 | 7.0 | 0.00 | 0.00 | 0.00 | 28 | 1006.2 |
| 20260504003008 | 95 | 252 | 3.0 | 5.0 | 0.00 | 0.00 | 0.00 | 28 | 1006.4 |
| 20260504002506 | 95 | 144 | 5.0 | 6.0 | 0.00 | 0.00 | 0.00 | 29 | 1006.4 |
| 20260504002007 | 95 | 280 | 3.0 | 6.0 | 0.00 | 0.00 | 0.00 | 29 | 1006.3 |
| 20260504001507 | 95 | 171 | 4.0 | 7.0 | 0.00 | 0.00 | 0.00 | 29 | 1006.4 |
| 20260504001007 | 95 | 226 | 6.0 | 8.0 | 0.00 | 0.00 | 0.00 | 28 | 1006.4 |
| 20260504000508 | 95 | 162 | 7.0 | 8.0 | 0.00 | 0.00 | 0.00 | 27 | 1006.4 |
| 20260504000007 | 96 | 144 | 5.0 | 6.0 | 0.00 | 0.00 | 0.00 | 28 | 1006.4 |
| 20260503235507 | 96 | 218 | 5.0 | 8.0 | 0.00 | 0.00 | 0.00 | 29 | 1006.4 |
| 20260503235007 | 95 | 270 | 6.0 | 8.0 | 0.00 | 0.00 | 0.00 | 29 | 1006.4 |